EST,Max TemperatureF,Mean TemperatureF,Min TemperatureF,Max Dew PointF,MeanDew PointF,Min DewpointF,Max Humidity, Mean Humidity, Min Humidity, Max Sea Level PressureIn, Mean Sea Level PressureIn, Min Sea Level PressureIn, Max VisibilityMiles, Mean VisibilityMiles, Min VisibilityMiles, Max Wind SpeedMPH, Mean Wind SpeedMPH, Max Gust SpeedMPH,PrecipitationIn, CloudCover, Events, WindDirDegrees
2012-11-1,40,36,32,34,30,22,92,76,59,29.80,29.66,29.60,10,10,4,21,13,28,0.01,8,Rain,329
2012-11-2,38,35,31,23,22,20,69,62,54,30.13,29.97,29.80,10,10,10,21,12,29,0.00,7,,346
2012-11-3,38,33,28,23,21,20,75,64,52,30.24,30.21,30.15,10,10,10,12,6,17,0.00,5,,353
2012-11-4,38,32,25,22,19,16,81,67,52,30.27,30.24,30.20,10,10,10,13,5,19,0.00,2,,27
2012-11-5,35,29,22,20,16,14,71,59,47,30.32,30.27,30.17,10,10,10,13,4,19,0.00,6,,92
2012-11-6,38,34,29,29,23,19,75,65,54,30.16,30.06,30.00,10,10,10,15,6,20,0.00,8,,124
2012-11-7,40,38,35,32,30,28,82,76,70,30.17,30.13,30.05,10,10,9,7,3,9,0.00,8,,90
2012-11-8,43,40,36,37,33,26,92,78,64,30.17,30.09,30.01,10,8,2,10,4,14,0.02,8,Rain,144
2012-11-9,46,42,37,39,36,32,85,78,70,30.19,30.11,30.03,10,8,6,8,3,12,0.00,7,,30
2012-11-10,44,38,32,42,30,24,92,81,69,30.24,30.10,29.92,10,7,2,17,10,31,0.37,8,Rain,94
2012-11-11,64,54,44,53,46,42,93,77,60,29.93,29.83,29.68,10,5,2,21,10,28,0.04,6,Rain,121
2012-11-12,53,40,26,50,34,14,93,78,63,30.04,29.81,29.69,10,8,1,26,11,33,0.26,8,Rain-Snow,254
2012-11-13,39,32,24,30,24,14,74,66,57,30.45,30.31,30.07,10,9,2,16,9,22,T,5,Snow,247
2012-11-14,39,34,29,32,27,22,76,70,64,30.50,30.45,30.38,10,10,7,13,8,17,0.01,8,Rain,162
2012-11-15,47,41,34,37,31,25,82,68,53,30.38,30.29,30.23,10,9,7,16,8,20,T,6,Rain,162
2012-11-16,42,36,29,30,20,10,82,56,30,30.52,30.46,30.32,10,10,10,10,4,15,0.00,0,,358
2012-11-17,42,34,26,35,29,19,92,81,69,30.56,30.53,30.50,10,7,1,10,5,13,0.00,6,,113
2012-11-18,51,44,36,38,36,32,100,75,50,30.51,30.46,30.39,10,4,0,13,7,17,0.00,1,Fog,110
2012-11-19,49,44,38,39,37,33,92,74,56,30.38,30.27,30.13,10,5,2,15,6,19,T,4,Rain,108
2012-11-20,47,42,37,41,39,36,100,88,76,30.15,30.11,30.08,6,4,0,8,3,10,0.00,6,Fog,74
2012-11-21,51,47,42,41,40,39,89,80,71,30.15,30.09,29.96,9,4,1,14,5,17,0.00,6,,156
2012-11-22,65,52,39,44,38,34,92,62,31,29.95,29.76,29.51,10,7,2,24,9,33,0.00,3,,141
2012-11-23,55,41,27,46,28,20,85,75,64,29.91,29.53,29.31,10,6,0,35,17,49,0.07,8,Fog-Rain-Snow,285
2012-11-24,27,25,22,20,16,11,75,66,57,30.06,29.99,29.89,10,10,4,22,10,33,T,8,Snow,340
2012-11-25,32,27,22,27,22,16,92,81,69,29.92,29.77,29.69,10,4,0,21,7,29,0.39,8,Fog-Snow,164
2012-11-26,31,27,22,25,21,16,88,78,68,30.25,30.07,29.84,10,3,0,22,7,29,0.49,8,Fog-Snow,301
2012-11-27,32,25,17,28,22,12,92,79,65,30.25,30.11,29.99,10,5,1,17,8,23,0.14,8,Snow,219
2012-11-28,30,26,21,26,19,12,92,74,55,30.19,30.09,29.98,10,5,0,22,12,32,0.16,8,Fog-Snow,274
2012-11-29,31,24,16,26,13,6,78,65,52,30.40,30.21,30.04,10,9,1,17,8,24,T,8,Snow,19
2012-11-30,20,17,14,10,4,0,67,57,47,30.47,30.42,30.35,10,10,10,14,9,20,0.00,7,,90